Weather History for KMSS - January, 2013

Change the Weather History Date:

Thursday, January 17, 2013

  Actual Average Record
Temperature  
Mean Temperature 15 °F 14 °F  
Max Temperature 35 °F 24 °F 51 °F (1990)
Min Temperature -6 °F 4 °F -34 °F (1974)
Degree Days  
Heating Degree Days 50 51  
Month to date heating degree days 711 854  
Since 1 July heating degree days 3497 3953  
Cooling Degree Days 0 0  
Month to date cooling degree days 0  
Year to date cooling degree days 0  
Moisture  
Dew Point 14 °F    
Average Humidity 70    
Maximum Humidity 89    
Minimum Humidity 50    
Precipitation  
Precipitation T in 0.07 in 0.31 in (2012)
Month to date precipitation 0.52 1.26  
Year to date precipitation 0.52 1.26  
Sea Level Pressure  
Sea Level Pressure 29.96 in    
Wind  
Wind Speed 9 mph (West)    
Max Wind Speed 28 mph    
Max Gust Speed 36 mph    
Visibility 6 miles    
Events Snow    
T = Trace of Precipitation, MM = Missing Value Source: NWS Daily Summary

Daily Weather History Graph

Daily Weather History Graph

Search for Another Location

Airport or City:

Trip Planner

Search our weather history database for the weather conditions in past years. The results will help you decide how hot, cold, wet, or windy it might be!

Date:

Astronomy

Jan. 17, 2013 Rise Set
Actual Time 7:32 AM EST 4:47 PM EST
Civil Twilight 6:59 AM EST 5:19 PM EST
Nautical Twilight 6:23 AM EST 5:55 PM EST
Astronomical Twilight 5:48 AM EST 6:30 PM EST
Moon 10:18 AM EST (1/17) 11:56 PM EST (1/17)
Length of Visible Light 10h 19m
Length of Day
9h 14m
Waxing Crescent, 37% of the Moon is Illuminated
Jan 17
Waxing Crescent
Jan 18
First Quarter
Jan 26
Full
Feb 3
Last Quarter
Feb 10
New

Hourly Weather History & Observations

Time (EST) Temp. Windchill Dew Point Humidity Pressure Visibility Wind Dir Wind Speed Gust Speed Precip Events Conditions
12:53 AM 35.1 °F 26.9 °F 28.0 °F 76% 29.75 in 4.0 mi SW 11.5 mph 20.7 mph 0.00 in Snow Light Snow
1:34 AM 33.8 °F 24.3 °F 26.6 °F 75% 29.75 in 2.5 mi WSW 13.8 mph 19.6 mph 0.00 in Snow Light Snow
1:53 AM 33.1 °F 25.5 °F 27.0 °F 78% 29.78 in 1.8 mi SW 9.2 mph - 0.00 in Snow Light Snow
2:05 AM 32.0 °F 24.2 °F 28.4 °F 87% 29.76 in 1.2 mi SW 9.2 mph - 0.00 in Snow Light Snow
2:17 AM 33.8 °F 25.8 °F 28.4 °F 81% 29.77 in 1.5 mi SW 10.4 mph - 0.00 in Snow Light Snow
2:29 AM 33.8 °F 24.8 °F 30.2 °F 87% 29.77 in 1.2 mi SW 12.7 mph - 0.00 in Snow Light Snow
2:37 AM 33.8 °F 26.4 °F 30.2 °F 87% 29.77 in 1.2 mi SW 9.2 mph - 0.00 in Snow Light Snow
2:48 AM 33.8 °F 24.8 °F 30.2 °F 87% 29.77 in 1.5 mi SW 12.7 mph 20.7 mph 0.00 in Snow Light Snow
2:53 AM 33.1 °F 23.4 °F 30.0 °F 89% 29.78 in 1.2 mi SW 13.8 mph - 0.00 in Snow Light Snow
3:05 AM 33.8 °F 23.5 °F 30.2 °F 87% 29.77 in 1.5 mi SW 16.1 mph - 0.00 in Snow Light Snow
3:15 AM 33.8 °F 23.9 °F 30.2 °F 87% 29.77 in 1.2 mi SW 15.0 mph - 0.00 in Snow Light Snow
3:19 AM 33.8 °F 23.5 °F 30.2 °F 87% 29.77 in 1.5 mi SW 16.1 mph 23.0 mph 0.00 in Snow Light Snow
3:26 AM 33.8 °F 23.5 °F 30.2 °F 87% 29.77 in 2.0 mi SW 16.1 mph 23.0 mph 0.00 in Snow Light Snow
3:53 AM 33.8 °F 23.5 °F 30.2 °F 87% 29.77 in 2.5 mi SW 16.1 mph 21.9 mph N/A Snow Light Snow
4:01 AM 33.8 °F 24.3 °F 30.2 °F 87% 29.77 in 4.0 mi SW 13.8 mph - 0.00 in Snow Light Snow
4:20 AM 33.8 °F 23.2 °F 30.2 °F 87% 29.76 in 6.0 mi SW 17.3 mph - 0.00 in Snow Light Snow
4:28 AM 33.8 °F 25.8 °F 30.2 °F 87% 29.77 in 7.0 mi SW 10.4 mph - 0.00 in   Overcast
4:41 AM 33.8 °F 24.3 °F 30.2 °F 87% 29.78 in 8.0 mi SW 13.8 mph - 0.00 in   Overcast
4:53 AM 33.1 °F 23.9 °F 30.0 °F 89% 29.80 in 6.0 mi WSW 12.7 mph 25.3 mph 0.00 in Snow Light Snow
5:21 AM 33.8 °F 21.9 °F 30.2 °F 87% 29.81 in 1.8 mi West 21.9 mph 29.9 mph 0.00 in Snow Light Snow
5:23 AM 33.8 °F 21.9 °F 30.2 °F 87% 29.82 in 1.2 mi WNW 21.9 mph 33.4 mph 0.00 in Snow Light Snow
5:29 AM 28.4 °F 14.1 °F 24.8 °F 86% 29.83 in 0.8 mi WNW 24.2 mph 35.7 mph 0.00 in Snow Light Snow
5:37 AM 28.4 °F 15.1 °F 23.0 °F 80% 29.84 in 1.5 mi WNW 20.7 mph 35.7 mph 0.00 in Snow Light Snow
5:53 AM 27.0 °F 13.2 °F 19.9 °F 75% 29.88 in 3.0 mi WNW 20.7 mph 31.1 mph 0.00 in Snow Light Snow
6:08 AM 26.6 °F 12.7 °F 15.8 °F 64% 29.88 in 5.0 mi WNW 20.7 mph 31.1 mph 0.00 in Snow Light Snow
6:53 AM 23.0 °F 8.3 °F 12.2 °F 63% 29.93 in 9.0 mi NW 19.6 mph 29.9 mph N/A   Overcast
7:53 AM 17.1 °F 1.5 °F 7.0 °F 65% 30.04 in 10.0 mi NW 17.3 mph 24.2 mph N/A   Overcast
8:53 AM 12.0 °F -0.4 °F 1.0 °F 61% 30.12 in 10.0 mi NW 9.2 mph 21.9 mph 0.00 in   Overcast
9:53 AM 10.0 °F -3.7 °F -0.9 °F 61% 30.18 in 10.0 mi NW 10.4 mph 17.3 mph N/A   Partly Cloudy
10:53 AM 10.0 °F -3.7 °F -2.0 °F 58% 30.21 in 10.0 mi WNW 10.4 mph - N/A   Clear
11:53 AM 9.0 °F -3.2 °F -4.0 °F 56% 30.22 in 10.0 mi NW 8.1 mph 18.4 mph N/A   Clear
12:53 PM 9.0 °F -5.1 °F -6.0 °F 51% 30.22 in 10.0 mi WNW 10.4 mph - N/A   Clear
1:53 PM 10.0 °F -1.9 °F -5.1 °F 51% 30.22 in 10.0 mi NW 8.1 mph - N/A   Clear
2:53 PM 9.0 °F -4.2 °F -7.1 °F 48% 30.23 in 10.0 mi NW 9.2 mph - N/A   Clear
3:53 PM 7.0 °F -5.7 °F -8.0 °F 51% 30.24 in 10.0 mi West 8.1 mph - N/A   Clear
4:53 PM 5.0 °F -6.9 °F -9.9 °F 50% 30.25 in 10.0 mi West 6.9 mph - N/A   Clear
5:53 PM 3.0 °F -6.4 °F -11.0 °F 52% 30.26 in 10.0 mi West 4.6 mph - N/A   Clear
6:53 PM 3.9 °F -5.3 °F -11.0 °F 50% 30.27 in 10.0 mi WNW 4.6 mph - N/A   Clear
7:53 PM -0.0 °F - -13.0 °F 54% 30.30 in 10.0 mi Calm Calm - N/A   Clear
8:53 PM -0.9 °F - -11.0 °F 62% 30.30 in 10.0 mi Calm Calm - N/A   Mostly Cloudy
9:53 PM -4.0 °F - -11.0 °F 72% 30.28 in 10.0 mi Calm Calm - N/A   Clear
10:53 PM -2.9 °F - -9.9 °F 72% 30.25 in 10.0 mi Calm Calm - N/A   Clear
11:53 PM -5.1 °F - -11.0 °F 76% 30.25 in 10.0 mi Calm Calm - N/A   Clear